Home   Weather   Kathmandu   Past weeks

Flag for Nepal Past Weather in Kathmandu, Nepal — Yesterday and Last 2 Weeks

75 °F

Passing clouds.

Feels Like: 78 °F
Forecast: 53 / 78 °F
Wind: 5 mph from West

Location: Kathmandu Airport

Current Time: Oct 24, 2016 at 12:43:46 PM

Latest Report: Oct 24, 2016 at 12:05 PM

Visibility: 4 mi

Pressure: 29.98 "Hg (25.80 "Hg at 1305m altitude)

Humidity: 47%

Dew Point: 54 °F

Location of KathmanduLocation

Past Weather in Kathmandu — Graph


Kathmandu Temperature Yesterday

Maximum temperature yesterday: 77 °F (at 1:05 PM)
Minimum temperature yesterday: 55 °F (at 4:35 AM)
Average temperature yesterday: 65 °F

High & Low Weather Summary for the Past Weeks

High81 °F (Oct 10, 12:35 PM)100% (Oct 11, 2:35 AM)30.15 "Hg (Oct 11, 2:35 AM)
Low55 °F (Oct 21, 5:35 AM)28% (Oct 11, 11:35 PM)29.86 "Hg (Oct 9, 4:05 PM)
Average69 °F77%29.99 "Hg
* Reported Oct 9 11:05 AM — Oct 24 11:05 AM, Kathmandu, Weather by CustomWeather, © 2016

Note: Actual official high and low records may vary slightly from our data, if they occured in-between our weather recording intervals... More about our weather records


Kathmandu Weather History for the Previous 24 Hours

Scroll right to see more
Time TempWeatherWind HumidityBarometerVisibility
11:05 AM
Mon, Oct 24
73 °FPassing clouds.5 mph61%30.01 "Hg4 mi
10:35 AM70 °FHaze.3 mph69%30.04 "Hg3 mi
10:05 AM70 °FFog.3 mph69%30.04 "Hg2 mi
9:35 AM68 °FFog.2 mph73%30.04 "Hg2 mi
9:05 AM66 °FFog.2 mph78%30.04 "Hg2 mi
8:35 AM64 °FFog.2 mph83%30.04 "Hg1 mi
8:05 AM63 °FFog.2 mph88%30.01 "Hg1 mi
7:35 AM59 °FFog.3 mph94%30.01 "Hg1 mi
7:05 AM57 °FFog.2 mph100%30.01 "Hg1 mi
6:35 AM57 °FFog.3 mph94%29.98 "Hg1 mi
6:05 AM57 °FFog.3 mph94%29.98 "Hg1 mi
5:35 AM57 °FFog.2 mph100%29.95 "Hg2 mi
4:35 AM57 °FFog.3 mph100%29.95 "Hg2 mi
3:35 AM59 °FFog.2 mph94%29.95 "Hg2 mi
1:35 AM61 °FFog.No wind88%29.95 "Hg2 mi
12:05 AM61 °FFog.No wind88%29.98 "Hg2 mi
11:35 PM
Sun, Oct 23
61 °FPassing clouds.No wind88%29.98 "Hg4 mi
11:05 PM61 °FPassing clouds.No wind88%30.01 "Hg4 mi
10:35 PM63 °FPassing clouds.No wind88%30.01 "Hg4 mi
10:05 PM63 °FPassing clouds.No wind88%30.01 "Hg4 mi
9:35 PM63 °FPassing clouds.No wind88%30.01 "Hg4 mi
9:05 PM63 °FPassing clouds.2 mph83%29.98 "Hg4 mi
8:35 PM63 °FPassing clouds.5 mph83%30.01 "Hg4 mi
8:05 PM64 °FPassing clouds.3 mph78%29.98 "Hg4 mi
7:35 PM64 °FPassing clouds.6 mph83%29.98 "Hg4 mi
7:05 PM64 °FPassing clouds.5 mph78%29.98 "Hg4 mi
6:35 PM66 °FPassing clouds.3 mph78%29.95 "Hg4 mi
6:05 PM68 °FPassing clouds.6 mph78%29.95 "Hg4 mi
5:35 PM68 °FPassing clouds.9 mph78%29.95 "Hg4 mi
5:05 PM70 °FPassing clouds.9 mph73%29.95 "Hg4 mi
4:35 PM70 °FPassing clouds.8 mph69%29.95 "Hg4 mi
4:05 PM72 °FScattered clouds.9 mph61%29.92 "Hg4 mi
3:35 PM73 °FScattered clouds.7 mph53%29.92 "Hg4 mi
3:05 PM75 °FScattered clouds.9 mph50%29.92 "Hg4 mi
2:35 PM75 °FScattered clouds.7 mph50%29.95 "Hg4 mi
2:05 PM77 °FScattered clouds.6 mph44%29.95 "Hg5 mi
1:35 PM75 °FScattered clouds.8 mph44%29.95 "Hg5 mi
1:05 PM77 °FPassing clouds.5 mph42%29.95 "Hg5 mi
12:35 PM75 °FPassing clouds.5 mph44%29.98 "Hg5 mi
12:05 PM73 °FPassing clouds.5 mph50%30.01 "Hg4 mi
Weather by CustomWeather, © 2016

See weather overviewHow to use our weather pages